Tracking 29892 objects as of 21-Nov-2024
HD Live streaming from Space Station
objects crossing your sky now

STARLINK-31726

Track STARLINK-31726 now!
10-day predictions
STARLINK-31726 is classified as:


NORAD ID: 59739
Int'l Code: 2024-090K
Perigee: 450.2 km
Apogee: 452.1 km
Inclination: 43.0 °
Period: 93.5 minutes
Semi major axis: 6822 km
RCS: Unknown
Launch date: May 13, 2024
Source: United States (US)
Launch site: AIR FORCE EASTERN TEST RANGE (AFETR)
Your satellite tracking list
Your tracking list is empty




NASA's NSSDC Master Catalog

Two Line Element Set (TLE):
1 59739U 24090K   24325.47040073  .00001902  00000-0  52779-4 0  9995
2 59739  43.0014 352.0988 0001351 253.2319 106.8390 15.40704250 30791
Source of the keplerian elements: AFSPC